PulseSat

PulseSat

GSAT0216 (PRN E25)

Last updated on Jan. 14, 2019, 3:02 a.m. UTC

1 43056U 17079B   19012.94215200 -.00000027  00000-0  00000+0 0  9997
2 43056  56.6854 296.0805 0003951 276.1200  83.8753  1.70473520  6739
UTC
Height (km)
Latitude
Longitude
Inclination
Orbital Period

Next 30 passes for location: Hong Kong

Rise time Rise Azimuth (degrees) Set time Set Azimuth (degrees) Duration Max altitude (degrees)

No matching passes for this satellites

PulseSat

PulseSat is the new satellites software and hardware trackering solution by Pulsely.
Satellite Two Line Element Set source: US Air Force Space Command

Download PulseSat for iOS
© 2017 Pulsely Limited